#timestamp,LO_Frequency,Hit,StdDev 
1676534415.2,286047000.0,N
1676534435.1,286046998.8,N
1676534436.0,286046998.8,N
1676534455.8,286046998.2,N
1676534475.6,286046998.3,N
1676534495.5,286046998.1,N
1676534515.3,286047000.8,N
1676534535.2,286046999.3,N
1676534555.9,286047001.2,N
1676534575.7,286047000.6,N
1676534595.6,286047002.4,N
1676534615.4,286046998.5,N
1676534635.2,286046998.4,N
1676534655.1,286047000.1,N
1676534656.0,286047000.1,N
1676534675.8,286047002.6,N
1676534695.7,286047003.7,N
1676534715.5,286047004.4,N
1676534735.3,286047000.4,N
1676534755.2,286046998.5,N
1676534775.0,286047001.9,N
1676534775.9,286047001.9,N
1676534795.8,286047002.8,N
1676534815.6,286046999.7,N
1676534835.4,286047001.9,N
1676534855.3,286047004.3,N
1676534875.1,286047001.9,N
1676534895.8,286047000.9,N
1676534915.7,286046999.9,N
1676534935.5,286047000.4,N
1676534955.4,286047002.3,N
1676534975.2,286047000.1,N
1676534995.0,286046998.9,N
1676534995.9,286046998.9,N
1676535015.8,286046999.3,N
1676535035.6,286046998.9,N
1676535055.5,286047001.3,N
1676535075.3,286047004.4,N
1676535095.1,286046999.8,N
1676535115.9,286047000.9,N
1676535135.7,286047002.7,N
1676535155.6,286046999.9,N
1676535175.4,286047002.5,N
1676535195.2,286047002.8,N
1676535215.1,286047002.4,N
1676535216.0,286047002.4,N
1676535235.8,286047001.9,N
1676535255.7,286047002.4,N
1676535275.5,286047001.7,N
1676535295.3,286047001.0,N
1676535315.2,286046998.3,N
1676535335.0,286046998.7,N
1676535335.9,286046998.7,N
1676535355.8,286046999.2,N
1676535375.6,286047000.3,N
1676535395.4,286046998.1,N
1676535415.3,286047002.8,N
1676535435.1,286047001.5,N
1676535455.8,286047001.9,N
1676535475.7,286047003.7,N
1676535495.5,286047000.6,N
1676535515.4,286046998.1,N
1676535535.2,286046998.1,N
1676535555.0,286047002.2,N
1676535555.9,286047002.2,N
1676535575.8,286047004.4,N
1676535595.6,286047003.9,N
1676535615.4,286046999.9,N
1676535635.3,286047001.9,N
1676535655.1,286046999.7,N
1676535675.9,286047002.1,N
1676535695.7,286047001.4,N
1676535715.5,286047004.4,N
1676535735.4,286047004.2,N
1676535755.2,286047002.6,N
1676535775.1,286047000.7,N
1676535776.0,286047000.7,N
1676535795.8,286046998.4,N
1676535815.6,286046998.4,N
1676535835.5,286046998.8,N
1676535855.3,286046997.9,N
1676535875.2,286046995.1,N
1676535895.9,286046994.9,N
1676535915.7,286046996.7,N
1676535935.6,286046999.5,N
1676535955.4,286047002.4,N
1676535975.3,286047002.3,N
1676535995.1,286046998.9,N
1676536015.8,286047000.7,N
1676536035.7,286046999.0,N
1676536055.5,286046998.5,N
1676536075.4,286047000.8,N
1676536095.2,286047000.2,N
1676536115.0,286047000.8,N
1676536116.0,286047000.8,N
1676536135.8,286047002.8,N
1676536155.6,286047002.1,N
1676536175.5,286047004.0,N
1676536195.3,286047001.4,N
1676536215.2,286046999.7,N
1676536235.9,286047000.9,N
1676536255.7,286046999.2,N
1676536275.6,286047001.7,N
1676536295.4,286047002.4,N
1676536315.3,286047001.6,N
1676536335.1,286047003.2,N
1676536336.0,286047003.2,N
1676536355.8,286047002.6,N
1676536375.7,286046999.8,N
1676536395.5,286047000.7,N
1676536415.4,286047004.0,N
1676536435.2,286047002.6,N
1676536455.1,286047004.2,N
1676536456.0,286047004.2,N
1676536475.8,286047004.0,N
1676536495.6,286047005.9,Y
1676536515.5,286047001.3,P
1676536535.3,286047002.8,P
1676536555.2,286047000.3,N
1676536575.9,286046999.8,N
1676536595.7,286047000.5,N
1676536615.6,286047000.4,N
1676536635.4,286047000.0,N
1676536655.3,286046999.4,N
1676536675.1,286046996.6,Y
1676536676.0,286046996.6,P
1676536695.8,286046996.8,N
1676536715.7,286046997.2,N
1676536735.5,286046998.8,N
1676536755.4,286046999.0,N
1676536775.2,286046999.0,N
1676536795.0,286046997.1,N
1676536795.9,286046997.1,N
1676536815.8,286046997.8,N
1676536835.6,286046996.5,N
1676536855.4,286046997.9,N
1676536875.3,286046997.6,N
1676536895.1,286046997.8,N
1676536915.9,286046997.2,N
1676536935.7,286046997.4,N
1676536955.5,286046995.4,Y
1676536975.4,286046998.4,P
1676536995.2,286047000.2,N
1676537015.0,286047000.4,N
1676537016.0,286047000.4,N
1676537035.8,286047002.8,N
1676537055.6,286046999.8,N
1676537075.5,286047001.4,N
1676537095.3,286047001.5,N
1676537115.1,286047002.7,N
1676537135.9,286047000.3,N
1676537155.7,286047000.7,N
1676537175.5,286047002.5,N
1676537195.4,286047000.2,N
1676537215.2,286046998.8,N
1676537235.1,286047001.2,N
1676537236.0,286047001.2,N
1676537255.8,286046999.9,N
1676537275.6,286047000.7,N
1676537295.5,286047002.7,N
1676537315.3,286047000.7,N
1676537335.1,286047002.7,N
1676537355.9,286047002.6,N
1676537375.7,286047000.7,N
1676537395.6,286046999.7,N
1676537415.4,286047000.7,N
1676537435.2,286046998.2,N
1676537455.1,286046999.3,N
1676537456.0,286046999.3,N
1676537475.8,286047000.8,N
1676537495.7,286047000.5,N
1676537515.5,286046999.9,N
1676537535.3,286046999.6,N
1676537555.2,286046999.4,N
1676537575.9,286046998.8,N
1676537595.7,286046999.2,N
1676537615.6,286046999.5,N
1676537635.4,286046999.8,N
1676537655.2,286047000.1,N
1676537675.1,286047001.6,N
1676537676.0,286047001.6,N
1676537695.8,286047002.7,N
1676537715.7,286047000.8,N
1676537735.5,286046998.5,N
1676537755.3,286046996.5,N
1676537775.2,286046998.9,N
1676537795.0,286047000.5,N
1676537795.9,286047000.5,N
1676537815.8,286047001.9,N
1676537835.6,286046999.9,N
1676537855.4,286047000.7,N
1676537875.3,286046997.0,N
1676537895.1,286046998.5,N
1676537915.9,286047000.0,N
1676537935.7,286047004.1,Y
1676537955.5,286046999.7,P
1676537975.4,286047001.6,P
1676537995.2,286047000.4,N
